"Sample Date","Sample Time","Sensor Name","Sample Value","Units","Flow Rate","Sample Interval","Sample Volume","Laser Status","Number Channels","Micron Size 0","Counts/Channel 0","Micron Size 1","Counts/Channel 1","Micron Size 2","Counts/Channel 2","Micron Size 3","Counts/Channel 3","Micron Size 4","Counts/Channel 4","Micron Size 5","Counts/Channel 5","Micron Size 6","Counts/Channel 6","Micron Size 7","Counts/Channel 7","Micron Size 8","Counts/Channel 8","Micron Size 9","Counts/Channel 9","Micron Size 10","Counts/Channel 10","Micron Size 11","Counts/Channel 11","Micron Size 12","Counts/Channel 12","Micron Size 13","Counts/Channel 13","Micron Size 14","Counts/Channel 14","Micron Size 15","Counts/Channel 15","Micron Size 16","Counts/Channel 16","Micron Size 17","Counts/Channel 17","Micron Size 18","Counts/Channel 18","Micron Size 19","Counts/Channel 19","Micron Size 20","Counts/Channel 20","Micron Size 21","Counts/Channel 21","Micron Size 22","Counts/Channel 22","Micron Size 23","Counts/Channel 23","Micron Size 24","Counts/Channel 24","Micron Size 25","Counts/Channel 25","Micron Size 26","Counts/Channel 26","Micron Size 27","Counts/Channel 27","Micron Size 28","Counts/Channel 28","Micron Size 29","Counts/Channel 29","Micron Size 30","Counts/Channel 30","Micron Size 31","Counts/Channel 31"
"07/08/06","20:00:01","AMMA06",33314.000,"cc",28347.076,6.00,2834.708,1,6,0.100,17652.000,0.200,13399.000,0.300,1806.000,0.500,285.000,1.000,172.000,5.000,0
"07/08/06","20:00:07","AMMA06",33245.000,"cc",28250.250,6.00,2825.025,1,6,0.100,17752.000,0.200,13197.000,0.300,1830.000,0.500,290.000,1.000,176.000,5.000,0
"07/08/06","20:00:13","AMMA06",33349.000,"cc",28342.877,6.00,2834.288,1,6,0.100,17529.000,0.200,13396.000,0.300,1895.000,0.500,341.000,1.000,188.000,5.000,0
"07/08/06","20:00:19","AMMA06",33341.000,"cc",28289.994,6.00,2829.000,1,6,0.100,17544.000,0.200,13415.000,0.300,1885.000,0.500,316.000,1.000,181.000,5.000,0
"07/08/06","20:00:25","AMMA06",33433.000,"cc",28339.711,6.00,2833.971,1,6,0.100,17718.000,0.200,13308.000,0.300,1913.000,0.500,297.000,1.000,197.000,5.000,0
"07/08/06","20:00:31","AMMA06",33507.000,"cc",28250.766,6.00,2825.077,1,6,0.100,17766.000,0.200,13372.000,0.300,1862.000,0.500,300.000,1.000,207.000,5.000,0
"07/08/06","20:00:37","AMMA06",33602.000,"cc",28264.272,6.00,2826.427,1,6,0.100,17761.000,0.200,13535.000,0.300,1767.000,0.500,345.000,1.000,194.000,5.000,0
"07/08/06","20:00:43","AMMA06",33041.000,"cc",28409.154,6.00,2840.916,1,6,0.100,17412.000,0.200,13285.000,0.300,1862.000,0.500,293.000,1.000,189.000,5.000,0
"07/08/06","20:00:49","AMMA06",33678.000,"cc",28301.512,6.00,2830.151,1,6,0.100,17699.000,0.200,13591.000,0.300,1857.000,0.500,334.000,1.000,197.000,5.000,0
"07/08/06","20:00:55","AMMA06",33523.000,"cc",28352.090,6.00,2835.209,1,6,0.100,17682.000,0.200,13423.000,0.300,1844.000,0.500,348.000,1.000,226.000,5.000,0
"07/08/06","20:01:01","AMMA06",33818.000,"cc",28314.385,6.00,2831.439,1,6,0.100,17830.000,0.200,13574.000,0.300,1882.000,0.500,337.000,1.000,195.000,5.000,0
"07/08/06","20:01:07","AMMA06",34168.000,"cc",28302.859,6.00,2830.286,1,6,0.100,17957.000,0.200,13624.000,0.300,2017.000,0.500,375.000,1.000,195.000,5.000,0
"07/08/06","20:01:13","AMMA06",33800.000,"cc",28317.231,6.00,2831.723,1,6,0.100,17775.000,0.200,13600.000,0.300,1840.000,0.500,364.000,1.000,221.000,5.000,0
"07/08/06","20:01:19","AMMA06",33738.000,"cc",28303.277,6.00,2830.328,1,6,0.100,17724.000,0.200,13546.000,0.300,1973.000,0.500,307.000,1.000,188.000,5.000,0
"07/08/06","20:01:25","AMMA06",34398.000,"cc",28311.563,6.00,2831.157,1,6,0.100,18069.000,0.200,13701.000,0.300,2052.000,0.500,378.000,1.000,198.000,5.000,0
"07/08/06","20:01:31","AMMA06",33474.000,"cc",28350.982,6.00,2835.098,1,6,0.100,17546.000,0.200,13528.000,0.300,1903.000,0.500,330.000,1.000,167.000,5.000,0
"07/08/06","20:01:37","AMMA06",33150.000,"cc",28311.305,6.00,2831.131,1,6,0.100,17399.000,0.200,13443.000,0.300,1811.000,0.500,311.000,1.000,186.000,5.000,0
"07/08/06","20:01:43","AMMA06",33279.000,"cc",28316.143,6.00,2831.615,1,6,0.100,17345.000,0.200,13571.000,0.300,1883.000,0.500,297.000,1.000,183.000,5.000,0
"07/08/06","20:01:49","AMMA06",33435.000,"cc",28300.117,6.00,2830.012,1,6,0.100,17510.000,0.200,13545.000,0.300,1888.000,0.500,310.000,1.000,182.000,5.000,0
"07/08/06","20:01:55","AMMA06",33740.000,"cc",28354.979,6.00,2835.498,1,6,0.100,17586.000,0.200,13797.000,0.300,1853.000,0.500,311.000,1.000,193.000,5.000,0
"07/08/06","20:02:01","AMMA06",33763.000,"cc",28263.152,6.00,2826.315,1,6,0.100,17619.000,0.200,13768.000,0.300,1889.000,0.500,312.000,1.000,175.000,5.000,0
"07/08/06","20:02:07","AMMA06",33345.000,"cc",28342.994,6.00,2834.300,1,6,0.100,17555.000,0.200,13383.000,0.300,1866.000,0.500,360.000,1.000,181.000,5.000,0
"07/08/06","20:02:13","AMMA06",33868.000,"cc",28292.059,6.00,2829.206,1,6,0.100,17749.000,0.200,13544.000,0.300,2003.000,0.500,381.000,1.000,191.000,5.000,0
"07/08/06","20:02:19","AMMA06",34048.000,"cc",28335.270,6.00,2833.527,1,6,0.100,17853.000,0.200,13677.000,0.300,1975.000,0.500,364.000,1.000,179.000,5.000,0
"07/08/06","20:02:25","AMMA06",33556.000,"cc",28311.621,6.00,2831.162,1,6,0.100,17527.000,0.200,13438.000,0.300,2047.000,0.500,372.000,1.000,172.000,5.000,0
"07/08/06","20:02:31","AMMA06",33809.000,"cc",28340.059,6.00,2834.006,1,6,0.100,17710.000,0.200,13653.000,0.300,1972.000,0.500,306.000,1.000,168.000,5.000,0
"07/08/06","20:02:37","AMMA06",33616.000,"cc",28227.900,6.00,2822.790,1,6,0.100,17639.000,0.200,13517.000,0.300,1920.000,0.500,344.000,1.000,196.000,5.000,0
"07/08/06","20:02:43","AMMA06",32805.000,"cc",28335.164,6.00,2833.517,1,6,0.100,17073.000,0.200,13474.000,0.300,1827.000,0.500,277.000,1.000,154.000,5.000,0
"07/08/06","20:02:49","AMMA06",32777.000,"cc",28361.977,6.00,2836.198,1,6,0.100,17057.000,0.200,13461.000,0.300,1819.000,0.500,263.000,1.000,177.000,5.000,0
"07/08/06","20:02:55","AMMA06",32720.000,"cc",28312.742,6.00,2831.274,1,6,0.100,16886.000,0.200,13519.000,0.300,1854.000,0.500,284.000,1.000,177.000,5.000,0
"07/08/06","20:03:01","AMMA06",32645.000,"cc",28285.150,6.00,2828.515,1,6,0.100,16887.000,0.200,13465.000,0.300,1823.000,0.500,285.000,1.000,185.000,5.000,0
"07/08/06","20:03:07","AMMA06",32907.000,"cc",28308.715,6.00,2830.872,1,6,0.100,16975.000,0.200,13708.000,0.300,1800.000,0.500,263.000,1.000,161.000,5.000,0
"07/08/06","20:03:13","AMMA06",32985.000,"cc",28281.326,6.00,2828.133,1,6,0.100,17047.000,0.200,13660.000,0.300,1831.000,0.500,280.000,1.000,167.000,5.000,0
"07/08/06","20:03:19","AMMA06",33155.000,"cc",28279.059,6.00,2827.906,1,6,0.100,17342.000,0.200,13501.000,0.300,1849.000,0.500,302.000,1.000,161.000,5.000,0
"07/08/06","20:03:25","AMMA06",33178.000,"cc",28377.086,6.00,2837.709,1,6,0.100,17037.000,0.200,13711.000,0.300,1942.000,0.500,300.000,1.000,188.000,5.000,0
"07/08/06","20:03:31","AMMA06",32644.000,"cc",28283.912,6.00,2828.391,1,6,0.100,16814.000,0.200,13589.000,0.300,1832.000,0.500,263.000,1.000,146.000,5.000,0
"07/08/06","20:03:37","AMMA06",33332.000,"cc",28350.029,6.00,2835.003,1,6,0.100,17260.000,0.200,13724.000,0.300,1884.000,0.500,273.000,1.000,191.000,5.000,0
"07/08/06","20:03:43","AMMA06",33139.000,"cc",28348.242,6.00,2834.825,1,6,0.100,17200.000,0.200,13616.000,0.300,1842.000,0.500,301.000,1.000,180.000,5.000,0
"07/08/06","20:03:49","AMMA06",32956.000,"cc",28332.498,6.00,2833.250,1,6,0.100,17222.000,0.200,13501.000,0.300,1796.000,0.500,272.000,1.000,165.000,5.000,0
"07/08/06","20:03:55","AMMA06",33590.000,"cc",28307.740,6.00,2830.774,1,6,0.100,17625.000,0.200,13582.000,0.300,1898.000,0.500,314.000,1.000,171.000,5.000,0
"07/08/06","20:04:01","AMMA06",34233.000,"cc",28264.838,6.00,2826.484,1,6,0.100,18120.000,0.200,13744.000,0.300,1856.000,0.500,335.000,1.000,178.000,5.000,0
"07/08/06","20:04:07","AMMA06",33620.000,"cc",28351.961,6.00,2835.196,1,6,0.100,17520.000,0.200,13729.000,0.300,1892.000,0.500,322.000,1.000,157.000,5.000,0
"07/08/06","20:04:13","AMMA06",33150.000,"cc",28311.832,6.00,2831.183,1,6,0.100,17325.000,0.200,13544.000,0.300,1791.000,0.500,296.000,1.000,194.000,5.000,0
"07/08/06","20:04:19","AMMA06",33241.000,"cc",28329.408,6.00,2832.941,1,6,0.100,17445.000,0.200,13449.000,0.300,1877.000,0.500,305.000,1.000,165.000,5.000,0
"07/08/06","20:04:25","AMMA06",33237.000,"cc",28231.065,6.00,2823.107,1,6,0.100,17512.000,0.200,13383.000,0.300,1876.000,0.500,300.000,1.000,166.000,5.000,0
"07/08/06","20:04:31","AMMA06",33304.000,"cc",28317.953,6.00,2831.795,1,6,0.100,17516.000,0.200,13550.000,0.300,1801.000,0.500,268.000,1.000,169.000,5.000,0
"07/08/06","20:04:37","AMMA06",33222.000,"cc",28335.307,6.00,2833.531,1,6,0.100,17563.000,0.200,13382.000,0.300,1794.000,0.500,288.000,1.000,195.000,5.000,0
"07/08/06","20:04:43","AMMA06",33663.000,"cc",28362.914,6.00,2836.292,1,6,0.100,17570.000,0.200,13530.000,0.300,1978.000,0.500,372.000,1.000,213.000,5.000,0
"07/08/06","20:04:49","AMMA06",33611.000,"cc",28304.330,6.00,2830.433,1,6,0.100,17561.000,0.200,13587.000,0.300,1948.000,0.500,329.000,1.000,186.000,5.000,0
"07/08/06","20:04:55","AMMA06",33760.000,"cc",28308.375,6.00,2830.838,1,6,0.100,17607.000,0.200,13769.000,0.300,1904.000,0.500,316.000,1.000,164.000,5.000,0
"07/08/06","20:05:01","AMMA06",33309.000,"cc",28347.449,6.00,2834.745,1,6,0.100,17629.000,0.200,13269.000,0.300,1919.000,0.500,311.000,1.000,181.000,5.000,0
"07/08/06","20:05:07","AMMA06",33506.000,"cc",28364.190,6.00,2836.419,1,6,0.100,17614.000,0.200,13559.000,0.300,1851.000,0.500,297.000,1.000,185.000,5.000,0
"07/08/06","20:05:13","AMMA06",33400.000,"cc",28313.522,6.00,2831.352,1,6,0.100,17678.000,0.200,13435.000,0.300,1806.000,0.500,304.000,1.000,177.000,5.000,0
"07/08/06","20:05:19","AMMA06",33267.000,"cc",28324.285,6.00,2832.429,1,6,0.100,17549.000,0.200,13388.000,0.300,1850.000,0.500,307.000,1.000,173.000,5.000,0
"07/08/06","20:05:25","AMMA06",34038.000,"cc",28305.895,6.00,2830.590,1,6,0.100,17866.000,0.200,13637.000,0.300,1920.000,0.500,394.000,1.000,221.000,5.000,0
"07/08/06","20:05:31","AMMA06",33533.000,"cc",28309.053,6.00,2830.906,1,6,0.100,17680.000,0.200,13404.000,0.300,1937.000,0.500,331.000,1.000,181.000,5.000,0
"07/08/06","20:05:37","AMMA06",33442.000,"cc",28262.447,6.00,2826.245,1,6,0.100,17792.000,0.200,13340.000,0.300,1847.000,0.500,294.000,1.000,169.000,5.000,0
"07/08/06","20:05:43","AMMA06",33506.000,"cc",28323.717,6.00,2832.372,1,6,0.100,17715.000,0.200,13454.000,0.300,1867.000,0.500,281.000,1.000,189.000,5.000,0
"07/08/06","20:05:49","AMMA06",33740.000,"cc",28346.719,6.00,2834.672,1,6,0.100,17750.000,0.200,13562.000,0.300,1954.000,0.500,301.000,1.000,173.000,5.000,0
"07/08/06","20:05:55","AMMA06",33955.000,"cc",28296.863,6.00,2829.687,1,6,0.100,17943.000,0.200,13546.000,0.300,1910.000,0.500,362.000,1.000,194.000,5.000,0
"07/08/06","20:06:01","AMMA06",33832.000,"cc",28316.061,6.00,2831.606,1,6,0.100,17850.000,0.200,13573.000,0.300,1857.000,0.500,325.000,1.000,227.000,5.000,0
"07/08/06","20:06:07","AMMA06",33770.000,"cc",28317.965,6.00,2831.797,1,6,0.100,17851.000,0.200,13576.000,0.300,1829.000,0.500,312.000,1.000,202.000,5.000,0
"07/08/06","20:06:13","AMMA06",34453.000,"cc",28314.565,6.00,2831.457,1,6,0.100,18376.000,0.200,13534.000,0.300,1983.000,0.500,379.000,1.000,181.000,5.000,0
"07/08/06","20:06:19","AMMA06",33482.000,"cc",28332.139,6.00,2833.214,1,6,0.100,17648.000,0.200,13559.000,0.300,1795.000,0.500,303.000,1.000,177.000,5.000,0
"07/08/06","20:06:25","AMMA06",33666.000,"cc",28294.893,6.00,2829.490,1,6,0.100,17885.000,0.200,13416.000,0.300,1882.000,0.500,307.000,1.000,176.000,5.000,0
"07/08/06","20:06:31","AMMA06",33474.000,"cc",28342.732,6.00,2834.273,1,6,0.100,17830.000,0.200,13345.000,0.300,1829.000,0.500,288.000,1.000,182.000,5.000,0
"07/08/06","20:06:37","AMMA06",33602.000,"cc",28324.820,6.00,2832.482,1,6,0.100,17822.000,0.200,13471.000,0.300,1892.000,0.500,264.000,1.000,153.000,5.000,0
"07/08/06","20:06:43","AMMA06",33690.000,"cc",28295.893,6.00,2829.589,1,6,0.100,17790.000,0.200,13619.000,0.300,1812.000,0.500,298.000,1.000,171.000,5.000,0
"07/08/06","20:06:49","AMMA06",33765.000,"cc",28309.949,6.00,2830.995,1,6,0.100,17838.000,0.200,13622.000,0.300,1849.000,0.500,285.000,1.000,171.000,5.000,0
"07/08/06","20:06:55","AMMA06",34033.000,"cc",28304.998,6.00,2830.500,1,6,0.100,18128.000,0.200,13610.000,0.300,1825.000,0.500,297.000,1.000,173.000,5.000,0
"07/08/06","20:07:01","AMMA06",33879.000,"cc",28315.023,6.00,2831.502,1,6,0.100,17901.000,0.200,13668.000,0.300,1851.000,0.500,289.000,1.000,170.000,5.000,0
"07/08/06","20:07:07","AMMA06",33969.000,"cc",28309.981,6.00,2830.998,1,6,0.100,17961.000,0.200,13713.000,0.300,1823.000,0.500,288.000,1.000,184.000,5.000,0
"07/08/06","20:07:13","AMMA06",33975.000,"cc",28321.670,6.00,2832.167,1,6,0.100,17936.000,0.200,13844.000,0.300,1751.000,0.500,275.000,1.000,169.000,5.000,0
"07/08/06","20:07:19","AMMA06",34085.000,"cc",28344.320,6.00,2834.432,1,6,0.100,17889.000,0.200,13872.000,0.300,1864.000,0.500,277.000,1.000,182.000,5.000,1.000
"07/08/06","20:07:25","AMMA06",33496.000,"cc",28266.104,6.00,2826.611,1,6,0.100,17656.000,0.200,13593.000,0.300,1761.000,0.500,304.000,1.000,182.000,5.000,0
"07/08/06","20:07:31","AMMA06",34151.000,"cc",28373.315,6.00,2837.332,1,6,0.100,18085.000,0.200,13776.000,0.300,1783.000,0.500,316.000,1.000,191.000,5.000,0
"07/08/06","20:07:37","AMMA06",33996.000,"cc",28304.039,6.00,2830.404,1,6,0.100,17857.000,0.200,13869.000,0.300,1811.000,0.500,261.000,1.000,198.000,5.000,0
"07/08/06","20:07:43","AMMA06",33862.000,"cc",28306.219,6.00,2830.622,1,6,0.100,17990.000,0.200,13555.000,0.300,1841.000,0.500,303.000,1.000,173.000,5.000,0
"07/08/06","20:07:49","AMMA06",33468.000,"cc",28384.961,6.00,2838.496,1,6,0.100,17708.000,0.200,13505.000,0.300,1852.000,0.500,258.000,1.000,145.000,5.000,0
"07/08/06","20:07:55","AMMA06",33402.000,"cc",28246.322,6.00,2824.632,1,6,0.100,17619.000,0.200,13587.000,0.300,1738.000,0.500,285.000,1.000,173.000,5.000,0
"07/08/06","20:08:01","AMMA06",33937.000,"cc",28347.811,6.00,2834.781,1,6,0.100,18006.000,0.200,13607.000,0.300,1829.000,0.500,317.000,1.000,178.000,5.000,0
"07/08/06","20:08:07","AMMA06",33611.000,"cc",28356.463,6.00,2835.647,1,6,0.100,17685.000,0.200,13595.000,0.300,1874.000,0.500,289.000,1.000,168.000,5.000,0
"07/08/06","20:08:13","AMMA06",33839.000,"cc",28290.143,6.00,2829.014,1,6,0.100,17718.000,0.200,13787.000,0.300,1842.000,0.500,292.000,1.000,200.000,5.000,0
"07/08/06","20:08:19","AMMA06",33805.000,"cc",28314.803,6.00,2831.481,1,6,0.100,17633.000,0.200,13877.000,0.300,1816.000,0.500,314.000,1.000,165.000,5.000,0
"07/08/06","20:08:25","AMMA06",34011.000,"cc",28312.223,6.00,2831.222,1,6,0.100,17837.000,0.200,13791.000,0.300,1913.000,0.500,281.000,1.000,189.000,5.000,0
"07/08/06","20:08:31","AMMA06",33731.000,"cc",28289.566,6.00,2828.957,1,6,0.100,17775.000,0.200,13725.000,0.300,1761.000,0.500,311.000,1.000,159.000,5.000,0
"07/08/06","20:08:37","AMMA06",33896.000,"cc",28320.885,6.00,2832.089,1,6,0.100,17770.000,0.200,13870.000,0.300,1812.000,0.500,298.000,1.000,146.000,5.000,0
"07/08/06","20:08:43","AMMA06",34000.000,"cc",28330.799,6.00,2833.080,1,6,0.100,17993.000,0.200,13736.000,0.300,1846.000,0.500,266.000,1.000,159.000,5.000,0
"07/08/06","20:08:49","AMMA06",34502.000,"cc",28312.449,6.00,2831.245,1,6,0.100,17974.000,0.200,14045.000,0.300,1996.000,0.500,317.000,1.000,170.000,5.000,0
"07/08/06","20:08:55","AMMA06",34387.000,"cc",28354.410,6.00,2835.441,1,6,0.100,17978.000,0.200,14033.000,0.300,1893.000,0.500,303.000,1.000,180.000,5.000,0
"07/08/06","20:09:01","AMMA06",34446.000,"cc",28304.559,6.00,2830.456,1,6,0.100,17739.000,0.200,14016.000,0.300,2069.000,0.500,406.000,1.000,216.000,5.000,0
"07/08/06","20:09:07","AMMA06",34153.000,"cc",28367.856,6.00,2836.786,1,6,0.100,17904.000,0.200,13834.000,0.300,1868.000,0.500,358.000,1.000,189.000,5.000,0
"07/08/06","20:09:13","AMMA06",34231.000,"cc",28256.938,6.00,2825.694,1,6,0.100,17826.000,0.200,13950.000,0.300,1909.000,0.500,369.000,1.000,177.000,5.000,0
"07/08/06","20:09:19","AMMA06",34228.000,"cc",28336.172,6.00,2833.617,1,6,0.100,17758.000,0.200,14052.000,0.300,1936.000,0.500,305.000,1.000,177.000,5.000,0
"07/08/06","20:09:25","AMMA06",34126.000,"cc",28355.594,6.00,2835.560,1,6,0.100,17787.000,0.200,14036.000,0.300,1871.000,0.500,255.000,1.000,177.000,5.000,0
"07/08/06","20:09:31","AMMA06",33450.000,"cc",28267.000,6.00,2826.700,1,6,0.100,17430.000,0.200,13740.000,0.300,1847.000,0.500,266.000,1.000,167.000,5.000,0
"07/08/06","20:09:37","AMMA06",34047.000,"cc",28303.131,6.00,2830.313,1,6,0.100,17464.000,0.200,14233.000,0.300,1886.000,0.500,281.000,1.000,183.000,5.000,0
"07/08/06","20:09:43","AMMA06",33900.000,"cc",28337.631,6.00,2833.763,1,6,0.100,17412.000,0.200,14239.000,0.300,1812.000,0.500,275.000,1.000,162.000,5.000,0
"07/08/06","20:09:49","AMMA06",33839.000,"cc",28313.504,6.00,2831.351,1,6,0.100,17320.000,0.200,14171.000,0.300,1898.000,0.500,286.000,1.000,164.000,5.000,0
"07/08/06","20:09:55","AMMA06",33522.000,"cc",28317.289,6.00,2831.729,1,6,0.100,17282.000,0.200,13941.000,0.300,1853.000,0.500,265.000,1.000,181.000,5.000,0
"07/08/06","20:10:01","AMMA06",34259.000,"cc",28283.982,6.00,2828.398,1,6,0.100,17498.000,0.200,14337.000,0.300,1982.000,0.500,261.000,1.000,181.000,5.000,0
"07/08/06","20:10:07","AMMA06",33562.000,"cc",28329.926,6.00,2832.993,1,6,0.100,17348.000,0.200,13883.000,0.300,1869.000,0.500,302.000,1.000,160.000,5.000,0
"07/08/06","20:10:13","AMMA06",33876.000,"cc",28360.281,6.00,2836.028,1,6,0.100,17295.000,0.200,14217.000,0.300,1899.000,0.500,290.000,1.000,175.000,5.000,0
"07/08/06","20:10:19","AMMA06",33666.000,"cc",28261.117,6.00,2826.112,1,6,0.100,17164.000,0.200,14166.000,0.300,1927.000,0.500,257.000,1.000,152.000,5.000,0
"07/08/06","20:10:25","AMMA06",34514.000,"cc",28321.732,6.00,2832.173,1,6,0.100,17524.000,0.200,14585.000,0.300,1970.000,0.500,279.000,1.000,156.000,5.000,0
"07/08/06","20:10:31","AMMA06",33989.000,"cc",28352.402,6.00,2835.241,1,6,0.100,17278.000,0.200,14320.000,0.300,1921.000,0.500,324.000,1.000,146.000,5.000,0
"07/08/06","20:10:37","AMMA06",33869.000,"cc",28310.604,6.00,2831.061,1,6,0.100,17256.000,0.200,14162.000,0.300,2015.000,0.500,282.000,1.000,154.000,5.000,0
"07/08/06","20:10:43","AMMA06",33961.000,"cc",28304.106,6.00,2830.411,1,6,0.100,17448.000,0.200,14136.000,0.300,1930.000,0.500,264.000,1.000,183.000,5.000,0
"07/08/06","20:10:49","AMMA06",34008.000,"cc",28351.602,6.00,2835.160,1,6,0.100,17483.000,0.200,14253.000,0.300,1875.000,0.500,253.000,1.000,144.000,5.000,0
"07/08/06","20:10:55","AMMA06",33871.000,"cc",28352.291,6.00,2835.229,1,6,0.100,17365.000,0.200,14169.000,0.300,1919.000,0.500,267.000,1.000,151.000,5.000,0
"07/08/06","20:11:01","AMMA06",34374.000,"cc",28347.049,6.00,2834.705,1,6,0.100,17593.000,0.200,14443.000,0.300,1895.000,0.500,273.000,1.000,170.000,5.000,0
"07/08/06","20:11:07","AMMA06",33730.000,"cc",28239.199,6.00,2823.920,1,6,0.100,17327.000,0.200,14058.000,0.300,1921.000,0.500,276.000,1.000,148.000,5.000,0
"07/08/06","20:11:13","AMMA06",33759.000,"cc",28377.311,6.00,2837.731,1,6,0.100,17418.000,0.200,13978.000,0.300,1929.000,0.500,274.000,1.000,160.000,5.000,0
"07/08/06","20:11:19","AMMA06",34535.000,"cc",28275.609,6.00,2827.561,1,6,0.100,17789.000,0.200,14260.000,0.300,1939.000,0.500,359.000,1.000,188.000,5.000,0
"07/08/06","20:11:25","AMMA06",33991.000,"cc",28275.709,6.00,2827.571,1,6,0.100,17512.000,0.200,14084.000,0.300,1939.000,0.500,296.000,1.000,160.000,5.000,0
"07/08/06","20:11:31","AMMA06",34065.000,"cc",28362.106,6.00,2836.211,1,6,0.100,17564.000,0.200,14110.000,0.300,1928.000,0.500,288.000,1.000,175.000,5.000,0
"07/08/06","20:11:37","AMMA06",34062.000,"cc",28333.764,6.00,2833.377,1,6,0.100,17725.000,0.200,14073.000,0.300,1827.000,0.500,269.000,1.000,168.000,5.000,0
"07/08/06","20:11:43","AMMA06",34698.000,"cc",28278.481,6.00,2827.848,1,6,0.100,17768.000,0.200,14363.000,0.300,1978.000,0.500,384.000,1.000,205.000,5.000,0
"07/08/06","20:11:49","AMMA06",34193.000,"cc",28286.904,6.00,2828.691,1,6,0.100,17660.000,0.200,14221.000,0.300,1821.000,0.500,304.000,1.000,187.000,5.000,0
"07/08/06","20:11:55","AMMA06",34559.000,"cc",28330.895,6.00,2833.090,1,6,0.100,17889.000,0.200,14331.000,0.300,1869.000,0.500,303.000,1.000,167.000,5.000,0
"07/08/06","20:12:01","AMMA06",34078.000,"cc",28327.387,6.00,2832.739,1,6,0.100,17553.000,0.200,14055.000,0.300,1984.000,0.500,324.000,1.000,162.000,5.000,0
"07/08/06","20:12:07","AMMA06",34279.000,"cc",28304.379,6.00,2830.438,1,6,0.100,17563.000,0.200,14183.000,0.300,2060.000,0.500,298.000,1.000,175.000,5.000,0
"07/08/06","20:12:13","AMMA06",34118.000,"cc",28332.838,6.00,2833.284,1,6,0.100,17605.000,0.200,14093.000,0.300,1925.000,0.500,310.000,1.000,185.000,5.000,0
"07/08/06","20:12:19","AMMA06",34393.000,"cc",28347.332,6.00,2834.733,1,6,0.100,17604.000,0.200,14326.000,0.300,1992.000,0.500,297.000,1.000,174.000,5.000,0
"07/08/06","20:12:25","AMMA06",34097.000,"cc",28298.668,6.00,2829.867,1,6,0.100,17457.000,0.200,14185.000,0.300,2019.000,0.500,285.000,1.000,151.000,5.000,0
"07/08/06","20:12:31","AMMA06",34126.000,"cc",28287.006,6.00,2828.701,1,6,0.100,17644.000,0.200,14199.000,0.300,1842.000,0.500,274.000,1.000,167.000,5.000,0
"07/08/06","20:12:37","AMMA06",34497.000,"cc",28335.020,6.00,2833.502,1,6,0.100,17826.000,0.200,14160.000,0.300,1982.000,0.500,331.000,1.000,198.000,5.000,0
"07/08/06","20:12:43","AMMA06",34404.000,"cc",28317.266,6.00,2831.727,1,6,0.100,17777.000,0.200,14245.000,0.300,1918.000,0.500,307.000,1.000,157.000,5.000,0
"07/08/06","20:12:49","AMMA06",35176.000,"cc",28318.846,6.00,2831.885,1,6,0.100,18197.000,0.200,14308.000,0.300,2047.000,0.500,446.000,1.000,178.000,5.000,0
"07/08/06","20:12:55","AMMA06",34255.000,"cc",28326.582,6.00,2832.658,1,6,0.100,17686.000,0.200,14188.000,0.300,1914.000,0.500,287.000,1.000,180.000,5.000,0
"07/08/06","20:13:01","AMMA06",34012.000,"cc",28347.168,6.00,2834.717,1,6,0.100,17506.000,0.200,14243.000,0.300,1816.000,0.500,293.000,1.000,154.000,5.000,0
"07/08/06","20:13:07","AMMA06",34027.000,"cc",28250.945,6.00,2825.095,1,6,0.100,17592.000,0.200,14089.000,0.300,1869.000,0.500,303.000,1.000,174.000,5.000,0
"07/08/06","20:13:13","AMMA06",34140.000,"cc",28330.443,6.00,2833.044,1,6,0.100,17723.000,0.200,14051.000,0.300,1920.000,0.500,271.000,1.000,175.000,5.000,0
"07/08/06","20:13:19","AMMA06",33778.000,"cc",28378.807,6.00,2837.881,1,6,0.100,17672.000,0.200,13837.000,0.300,1803.000,0.500,300.000,1.000,166.000,5.000,0
"07/08/06","20:13:25","AMMA06",34330.000,"cc",28323.504,6.00,2832.351,1,6,0.100,17989.000,0.200,14060.000,0.300,1829.000,0.500,262.000,1.000,190.000,5.000,0
"07/08/06","20:13:31","AMMA06",33601.000,"cc",28333.668,6.00,2833.367,1,6,0.100,17381.000,0.200,13884.000,0.300,1899.000,0.500,280.000,1.000,157.000,5.000,0
"07/08/06","20:13:37","AMMA06",34237.000,"cc",28310.717,6.00,2831.072,1,6,0.100,17556.000,0.200,14327.000,0.300,1883.000,0.500,293.000,1.000,178.000,5.000,0
"07/08/06","20:13:43","AMMA06",34329.000,"cc",28307.672,6.00,2830.767,1,6,0.100,17891.000,0.200,14053.000,0.300,1907.000,0.500,316.000,1.000,162.000,5.000,0
"07/08/06","20:13:49","AMMA06",33838.000,"cc",28291.938,6.00,2829.194,1,6,0.100,17656.000,0.200,13857.000,0.300,1858.000,0.500,285.000,1.000,182.000,5.000,0
"07/08/06","20:13:55","AMMA06",33978.000,"cc",28320.895,6.00,2832.090,1,6,0.100,17677.000,0.200,14051.000,0.300,1808.000,0.500,280.000,1.000,162.000,5.000,0
"07/08/06","20:14:01","AMMA06",34375.000,"cc",28337.262,6.00,2833.726,1,6,0.100,17598.000,0.200,14360.000,0.300,1965.000,0.500,277.000,1.000,175.000,5.000,0
"07/08/06","20:14:07","AMMA06",34029.000,"cc",28316.713,6.00,2831.671,1,6,0.100,17461.000,0.200,14253.000,0.300,1876.000,0.500,275.000,1.000,164.000,5.000,0
"07/08/06","20:14:13","AMMA06",34189.000,"cc",28324.600,6.00,2832.460,1,6,0.100,17836.000,0.200,14119.000,0.300,1806.000,0.500,281.000,1.000,146.000,5.000,1.000